QPF
0.01 0.01 0.01 0.01 0.01 0.01 0.01 0.01 0.01 0.01 0.01 0.01 0.01 0.01 0.00 0.00 0.00 0.00 0.00 0.00 0.00 0.00 0.00 0.01 0.01 0.01 0.00 0.01 0.02 0.03 0.02 0.01 0.02 0.04 0.04 0.04 0.05 0.05 0.06 0.08 0.11 0.13 0.13
0.01 0.01 0.00 0.00 0.00 0.00 0.00 0.00 0.00 0.00 0.00 0.00 0.00 0.00 0.00 0.00 0.00 0.00 0.00 0.00 0.00 0.00 0.00 0.00 0.00 0.00 0.00 0.01 0.01 0.02 0.02 0.01 0.01 0.02 0.02 0.03 0.04 0.05 0.05 0.07 0.10 0.14 0.15
0.01 0.01 0.01 0.00 0.00 0.00 0.00 0.00 0.00 0.00 0.00 0.00 0.00 0.00 0.00 0.00 0.00 0.00 0.00 0.00 0.00 0.00 0.00 0.00 0.00 0.00 0.00 0.00 0.01 0.01 0.01 0.02 0.02 0.03 0.04 0.03 0.04 0.05 0.04 0.06 0.09 0.11 0.13
0.01 0.01 0.01 0.00 0.00 0.00 0.00 0.00 0.00 0.00 0.00 0.00 0.00 0.00 0.00 0.00 0.00 0.00 0.00 0.00 0.00 0.00 0.00 0.00 0.00 0.00 0.00 0.00 0.00 0.01 0.01 0.01 0.02 0.03 0.04 0.03 0.03 0.05 0.04 0.04 0.08 0.10 0.11
0.00 0.00 0.00 0.00 0.00 0.00 0.00 0.00 0.00 0.00 0.00 0.00 0.00 0.00 0.00 0.00 0.00 0.00 0.00 0.00 0.00 0.00 0.01 0.01 0.01 0.01 0.01 0.00 0.00 0.01 0.01 0.01 0.01 0.02 0.03 0.02 0.03 0.03 0.04 0.04 0.05 0.07 0.09
0.01 0.01 0.00 0.00 0.00 0.00 0.00 0.00 0.00 0.00 0.00 0.00 0.00 0.00 0.00 0.00 0.00 0.00 0.00 0.00 0.00 0.00 0.00 0.00 0.00 0.00 0.00 0.00 0.01 0.01 0.02 0.02 0.02 0.02 0.02 0.01 0.02 0.02 0.03 0.04 0.04 0.05 0.07
0.00 0.00 0.00 0.00 0.00 0.00 0.00 0.00 0.00 0.00 0.00 0.00 0.00 0.00 0.00 0.00 0.00 0.00 0.00 0.00 0.00 0.00 0.00 0.01 0.00 0.00 0.00 0.01 0.01 0.01 0.01 0.02 0.01 0.01 0.02 0.01 0.02 0.02 0.02 0.03 0.04 0.04 0.06
0.00 0.00 0.00 0.00 0.00 0.00 0.00 0.00 0.00 0.00 0.00 0.00 0.00 0.00 0.00 0.00 0.00 0.00 0.00 0.00 0.00 0.00 0.00 0.01 0.01 0.00 0.00 0.01 0.01 0.01 0.01 0.01 0.01 0.02 0.01 0.01 0.02 0.02 0.02 0.02 0.03 0.03 0.04
0.00 0.00 0.00 0.00 0.00 0.00 0.00 0.00 0.00 0.00 0.00 0.00 0.00 0.00 0.00 0.00 0.00 0.00 0.00 0.00 0.00 0.00 0.00 0.01 0.01 0.01 0.01 0.01 0.02 0.03 0.02 0.02 0.02 0.01 0.01 0.02 0.02 0.02 0.01 0.01 0.02 0.03 0.03
0.00 0.00 0.00 0.00 0.00 0.00 0.00 0.00 0.00 0.00 0.00 0.00 0.00 0.00 0.00 0.00 0.00 0.00 0.00 0.00 0.00 0.00 0.00 0.00 0.00 0.02 0.02 0.01 0.01 0.02 0.02 0.01 0.01 0.01 0.01 0.01 0.01 0.01 0.01 0.01 0.01 0.02 0.03
0.00 0.00 0.00 0.00 0.00 0.00 0.00 0.00 0.00 0.00 0.00 0.00 0.00 0.00 0.00 0.00 0.00 0.00 0.00 0.00 0.01 0.01 0.00 0.01 0.01 0.01 0.01 0.01 0.01 0.01 0.01 0.01 0.01 0.01 0.01 0.02 0.01 0.01 0.01 0.01 0.01 0.02 0.02
0.00 0.00 0.00 0.00 0.00 0.00 0.00 0.00 0.00 0.00 0.00 0.00 0.00 0.00 0.00 0.00 0.00 0.00 0.00 0.00 0.00 0.00 0.00 0.01 0.02 0.01 0.00 0.00 0.00 0.01 0.01 0.01 0.01 0.02 0.01 0.02 0.01 0.02 0.01 0.01 0.01 0.01 0.02
0.00 0.00 0.00 0.00 0.00 0.00 0.00 0.00 0.00 0.00 0.00 0.00 0.00 0.00 0.00 0.00 0.00 0.00 0.00 0.00 0.00 0.00 0.00 0.00 0.00 0.01 0.01 0.01 0.01 0.02 0.02 0.02 0.02 0.03 0.03 0.02 0.02 0.02 0.01 0.01 0.01 0.01 0.03
0.00 0.00 0.00 0.00 0.00 0.00 0.00 0.00 0.00 0.00 0.00 0.00 0.00 0.00 0.00 0.00 0.00 0.00 0.00 0.00 0.00 0.00 0.00 0.00 0.00 0.00 0.01 0.01 0.01 0.02 0.03 0.02 0.02 0.02 0.02 0.02 0.02 0.02 0.02 0.02 0.02 0.02 0.03
0.00 0.00 0.00 0.00 0.00 0.00 0.00 0.00 0.00 0.00 0.00 0.00 0.00 0.00 0.00 0.00 0.00 0.00 0.00 0.00 0.00 0.00 0.00 0.00 0.00 0.00 0.00 0.00 0.00 0.00 0.01 0.02 0.01 0.01 0.01 0.02 0.02 0.03 0.03 0.02 0.02 0.02 0.02
0.00 0.00 0.00 0.00 0.00 0.00 0.00 0.00 0.00 0.00 0.00 0.00 0.00 0.00 0.00 0.00 0.00 0.00 0.00 0.00 0.00 0.00 0.00 0.00 0.00 0.00 0.00 0.00 0.00 0.01 0.01 0.00 0.01 0.01 0.01 0.01 0.01 0.01 0.01 0.02 0.02 0.02 0.02
0.00 0.00 0.00 0.00 0.00 0.00 0.00 0.00 0.00 0.00 0.00 0.00 0.00 0.00 0.00 0.00 0.00 0.00 0.00 0.00 0.00 0.00 0.00 0.00 0.00 0.00 0.00 0.00 0.00 0.00 0.00 0.00 0.00 0.01 0.01 0.01 0.01 0.00 0.01 0.01 0.01 0.01 0.01
0.00 0.00 0.00 0.00 0.00 0.00 0.00 0.00 0.00 0.00 0.00 0.00 0.00 0.00 0.00 0.00 0.00 0.00 0.00 0.00 0.00 0.00 0.00 0.00 0.00 0.00 0.00 0.00 0.00 0.00 0.00 0.00 0.00 0.00 0.01 0.01 0.01 0.00 0.00 0.01 0.00 0.01 0.01
0.00 0.00 0.00 0.00 0.00 0.00 0.00 0.00 0.00 0.00 0.00 0.00 0.00 0.00 0.00 0.00 0.00 0.00 0.00 0.00 0.00 0.00 0.00 0.00 0.00 0.00 0.00 0.00 0.00 0.00 0.00 0.00 0.00 0.00 0.01 0.02 0.00 0.00 0.01 0.01 0.01 0.01 0.01
0.00 0.00 0.00 0.00 0.00 0.00 0.00 0.00 0.00 0.00 0.00 0.00 0.00 0.00 0.00 0.00 0.00 0.00 0.00 0.00 0.00 0.00 0.00 0.00 0.00 0.00 0.00 0.00 0.01 0.00 0.00 0.00 0.00 0.01 0.01 0.01 0.01 0.01 0.01 0.00 0.01 0.01 0.01
0.00 0.00 0.00 0.00 0.00 0.00 0.00 0.00 0.00 0.00 0.00 0.00 0.00 0.00 0.00 0.00 0.00 0.00 0.00 0.00 0.00 0.00 0.00 0.00 0.00 0.00 0.00 0.00 0.01 0.00 0.00 0.00 0.00 0.00 0.00 0.00 0.00 0.01 0.01 0.01 0.00 0.01 0.02
0.00 0.00 0.00 0.00 0.00 0.00 0.00 0.00 0.00 0.00 0.00 0.00 0.00 0.00 0.00 0.00 0.00 0.00 0.00 0.00 0.00 0.00 0.00 0.00 0.00 0.00 0.00 0.00 0.00 0.00 0.00 0.00 0.00 0.00 0.00 0.00 0.00 0.01 0.01 0.01 0.00 0.01 0.01
0.00 0.00 0.00 0.00 0.00 0.00 0.00 0.00 0.00 0.00 0.00 0.00 0.00 0.00 0.00 0.00 0.00 0.00 0.00 0.00 0.00 0.00 0.00 0.00 0.00 0.00 0.00 0.00 0.00 0.00 0.00 0.00 0.00 0.00 0.00 0.00 0.00 0.00 0.00 0.00 0.00 0.00 0.01
0.00 0.00 0.00 0.00 0.00 0.00 0.00 0.00 0.00 0.00 0.00 0.00 0.00 0.00 0.00 0.00 0.00 0.00 0.00 0.00 0.00 0.00 0.00 0.00 0.00 0.00 0.00 0.00 0.00 0.00 0.00 0.00 0.00 0.00 0.00 0.00 0.00 0.00 0.00 0.00 0.00 0.00 0.00
0.00 0.00 0.00 0.00 0.00 0.00 0.00 0.00 0.00 0.00 0.00 0.00 0.00 0.00 0.00 0.00 0.00 0.00 0.00 0.00 0.00 0.00 0.00 0.00 0.00 0.00 0.00 0.00 0.00 0.00 0.00 0.00 0.00 0.00 0.00 0.00 0.00 0.00 0.00 0.00 0.00 0.00 0.00
0.00 0.00 0.00 0.00 0.00 0.00 0.00 0.00 0.00 0.00 0.00 0.00 0.00 0.00 0.00 0.00 0.00 0.00 0.00 0.00 0.00 0.00 0.00 0.00 0.00 0.00 0.00 0.00 0.00 0.00 0.00 0.00 0.00 0.00 0.00 0.00 0.00 0.00 0.00 0.00 0.00 0.00 0.00
MSLP
1011.36 1011.53 1011.66 1011.74 1011.78 1011.79 1011.82 1011.91 1012.06 1012.30 1012.59 1012.89 1013.16 1013.34 1013.40 1013.32 1013.11 1012.81 1012.47 1012.12 1011.81 1011.58 1011.42 1011.33 1011.29 1011.27 1011.25 1011.21 1011.16 1011.09 1011.04 1011.00 1011.00 1011.02 1011.05 1011.09 1011.10 1011.08 1011.00 1010.87 1010.71 1010.54 1010.39
1011.32 1011.54 1011.71 1011.81 1011.83 1011.82 1011.80 1011.85 1011.98 1012.21 1012.52 1012.88 1013.20 1013.45 1013.57 1013.53 1013.34 1013.04 1012.68 1012.30 1011.97 1011.72 1011.56 1011.48 1011.45 1011.45 1011.44 1011.41 1011.35 1011.27 1011.18 1011.12 1011.09 1011.09 1011.12 1011.17 1011.19 1011.18 1011.10 1010.97 1010.79 1010.59 1010.41
1011.20 1011.49 1011.72 1011.85 1011.89 1011.86 1011.82 1011.83 1011.93 1012.15 1012.47 1012.85 1013.22 1013.52 1013.69 1013.70 1013.55 1013.27 1012.91 1012.54 1012.20 1011.94 1011.78 1011.70 1011.67 1011.67 1011.66 1011.61 1011.53 1011.42 1011.31 1011.22 1011.18 1011.18 1011.23 1011.29 1011.34 1011.35 1011.30 1011.18 1011.00 1010.78 1010.57
1011.00 1011.35 1011.65 1011.84 1011.91 1011.90 1011.85 1011.84 1011.92 1012.11 1012.42 1012.80 1013.19 1013.53 1013.75 1013.81 1013.70 1013.46 1013.14 1012.79 1012.46 1012.21 1012.04 1011.96 1011.93 1011.91 1011.87 1011.80 1011.69 1011.56 1011.42 1011.32 1011.27 1011.28 1011.35 1011.45 1011.54 1011.59 1011.57 1011.48 1011.31 1011.09 1010.86
1010.70 1011.12 1011.49 1011.75 1011.88 1011.91 1011.87 1011.85 1011.91 1012.07 1012.36 1012.72 1013.11 1013.47 1013.72 1013.82 1013.77 1013.59 1013.31 1013.00 1012.70 1012.47 1012.31 1012.22 1012.17 1012.13 1012.08 1011.98 1011.84 1011.68 1011.53 1011.42 1011.37 1011.40 1011.49 1011.62 1011.75 1011.85 1011.88 1011.81 1011.67 1011.46 1011.23
1010.34 1010.80 1011.24 1011.57 1011.77 1011.85 1011.84 1011.83 1011.87 1012.01 1012.26 1012.60 1012.97 1013.33 1013.60 1013.74 1013.74 1013.61 1013.39 1013.13 1012.88 1012.67 1012.53 1012.44 1012.38 1012.32 1012.24 1012.12 1011.97 1011.79 1011.63 1011.52 1011.47 1011.51 1011.62 1011.78 1011.95 1012.09 1012.16 1012.13 1012.02 1011.83 1011.60
1009.93 1010.42 1010.90 1011.30 1011.56 1011.70 1011.74 1011.75 1011.79 1011.90 1012.12 1012.42 1012.77 1013.11 1013.39 1013.55 1013.60 1013.52 1013.36 1013.16 1012.96 1012.78 1012.66 1012.58 1012.52 1012.45 1012.36 1012.23 1012.07 1011.89 1011.73 1011.62 1011.58 1011.63 1011.75 1011.93 1012.12 1012.28 1012.38 1012.39 1012.31 1012.15 1011.94
1009.54 1010.01 1010.51 1010.95 1011.27 1011.46 1011.55 1011.58 1011.63 1011.73 1011.92 1012.19 1012.51 1012.83 1013.10 1013.29 1013.36 1013.34 1013.23 1013.08 1012.93 1012.79 1012.69 1012.63 1012.58 1012.52 1012.43 1012.31 1012.16 1011.99 1011.84 1011.74 1011.70 1011.75 1011.87 1012.04 1012.24 1012.41 1012.53 1012.56 1012.52 1012.39 1012.21
1009.18 1009.61 1010.11 1010.56 1010.91 1011.14 1011.27 1011.33 1011.39 1011.50 1011.67 1011.92 1012.21 1012.51 1012.78 1012.97 1013.08 1013.09 1013.03 1012.93 1012.81 1012.72 1012.64 1012.60 1012.57 1012.53 1012.47 1012.37 1012.24 1012.10 1011.97 1011.88 1011.85 1011.88 1011.99 1012.14 1012.32 1012.48 1012.61 1012.66 1012.65 1012.56 1012.41
1008.92 1009.29 1009.74 1010.17 1010.52 1010.77 1010.92 1011.01 1011.09 1011.20 1011.37 1011.61 1011.89 1012.18 1012.44 1012.65 1012.77 1012.81 1012.79 1012.73 1012.65 1012.59 1012.54 1012.52 1012.52 1012.51 1012.48 1012.41 1012.33 1012.22 1012.12 1012.05 1012.02 1012.04 1012.12 1012.25 1012.39 1012.54 1012.65 1012.72 1012.73 1012.68 1012.59
1008.81 1009.10 1009.47 1009.84 1010.15 1010.37 1010.52 1010.62 1010.72 1010.84 1011.03 1011.27 1011.55 1011.84 1012.11 1012.33 1012.47 1012.54 1012.56 1012.53 1012.48 1012.45 1012.43 1012.44 1012.45 1012.47 1012.48 1012.46 1012.42 1012.36 1012.30 1012.24 1012.22 1012.23 1012.28 1012.37 1012.48 1012.59 1012.69 1012.76 1012.80 1012.79 1012.76
1008.87 1009.06 1009.32 1009.59 1009.82 1009.99 1010.11 1010.20 1010.30 1010.44 1010.64 1010.89 1011.19 1011.49 1011.78 1012.02 1012.19 1012.30 1012.34 1012.35 1012.33 1012.32 1012.33 1012.36 1012.40 1012.45 1012.49 1012.51 1012.51 1012.50 1012.47 1012.44 1012.42 1012.43 1012.46 1012.51 1012.58 1012.67 1012.75 1012.82 1012.88 1012.92 1012.94
1009.10 1009.17 1009.31 1009.45 1009.56 1009.64 1009.70 1009.76 1009.85 1009.99 1010.20 1010.48 1010.79 1011.12 1011.44 1011.71 1011.91 1012.06 1012.14 1012.18 1012.20 1012.22 1012.25 1012.30 1012.36 1012.43 1012.49 1012.55 1012.59 1012.61 1012.61 1012.61 1012.61 1012.61 1012.63 1012.66 1012.70 1012.76 1012.83 1012.90 1012.98 1013.06 1013.13
1009.47 1009.42 1009.40 1009.39 1009.37 1009.33 1009.31 1009.31 1009.37 1009.50 1009.72 1010.00 1010.34 1010.70 1011.04 1011.35 1011.60 1011.79 1011.92 1012.01 1012.07 1012.12 1012.18 1012.24 1012.32 1012.40 1012.48 1012.55 1012.61 1012.66 1012.69 1012.71 1012.72 1012.73 1012.75 1012.77 1012.80 1012.85 1012.91 1012.98 1013.08 1013.18 1013.29
1009.92 1009.75 1009.58 1009.40 1009.23 1009.06 1008.92 1008.85 1008.87 1008.97 1009.18 1009.47 1009.81 1010.19 1010.57 1010.91 1011.21 1011.46 1011.65 1011.80 1011.91 1012.00 1012.09 1012.17 1012.26 1012.34 1012.42 1012.50 1012.56 1012.62 1012.66 1012.70 1012.73 1012.76 1012.79 1012.82 1012.85 1012.90 1012.96 1013.04 1013.14 1013.26 1013.40
1010.39 1010.09 1009.78 1009.44 1009.11 1008.81 1008.56 1008.40 1008.36 1008.42 1008.59 1008.87 1009.21 1009.59 1009.99 1010.37 1010.72 1011.02 1011.28 1011.49 1011.67 1011.82 1011.94 1012.05 1012.14 1012.22 1012.30 1012.36 1012.42 1012.47 1012.52 1012.57 1012.62 1012.67 1012.72 1012.77 1012.83 1012.89 1012.96 1013.04 1013.14 1013.27 1013.41
1010.81 1010.40 1009.95 1009.47 1009.01 1008.59 1008.24 1007.99 1007.87 1007.87 1008.00 1008.22 1008.54 1008.90 1009.30 1009.70 1010.09 1010.45 1010.77 1011.06 1011.31 1011.52 1011.70 1011.84 1011.95 1012.03 1012.09 1012.13 1012.17 1012.21 1012.25 1012.31 1012.38 1012.46 1012.54 1012.63 1012.72 1012.80 1012.89 1012.98 1013.08 1013.20 1013.33
1011.12 1010.62 1010.06 1009.49 1008.92 1008.40 1007.97 1007.64 1007.44 1007.37 1007.43 1007.59 1007.84 1008.16 1008.53 1008.92 1009.33 1009.73 1010.12 1010.48 1010.81 1011.09 1011.33 1011.52 1011.65 1011.74 1011.79 1011.82 1011.84 1011.86 1011.89 1011.95 1012.04 1012.15 1012.27 1012.40 1012.53 1012.65 1012.76 1012.86 1012.96 1013.06 1013.17
1011.30 1010.75 1010.13 1009.49 1008.87 1008.29 1007.80 1007.41 1007.13 1006.98 1006.94 1007.01 1007.17 1007.41 1007.72 1008.07 1008.47 1008.89 1009.32 1009.75 1010.15 1010.51 1010.82 1011.07 1011.24 1011.35 1011.40 1011.43 1011.43 1011.44 1011.47 1011.53 1011.64 1011.78 1011.94 1012.12 1012.30 1012.46 1012.60 1012.71 1012.81 1012.90 1013.00
1011.39 1010.81 1010.18 1009.52 1008.88 1008.29 1007.76 1007.32 1006.97 1006.73 1006.59 1006.54 1006.58 1006.70 1006.91 1007.19 1007.54 1007.95 1008.40 1008.87 1009.34 1009.77 1010.16 1010.47 1010.70 1010.85 1010.93 1010.96 1010.97 1010.98 1011.01 1011.09 1011.22 1011.39 1011.60 1011.82 1012.05 1012.26 1012.43 1012.58 1012.68 1012.77 1012.85
1011.42 1010.86 1010.24 1009.61 1008.99 1008.40 1007.86 1007.39 1006.98 1006.64 1006.38 1006.20 1006.09 1006.07 1006.14 1006.31 1006.58 1006.94 1007.38 1007.86 1008.37 1008.87 1009.32 1009.71 1010.01 1010.22 1010.35 1010.42 1010.46 1010.49 1010.55 1010.65 1010.80 1011.01 1011.26 1011.53 1011.81 1012.06 1012.29 1012.46 1012.60 1012.70 1012.77
1011.45 1010.92 1010.36 1009.78 1009.20 1008.64 1008.11 1007.60 1007.14 1006.71 1006.32 1005.98 1005.71 1005.52 1005.44 1005.46 1005.61 1005.89 1006.27 1006.74 1007.27 1007.81 1008.33 1008.79 1009.17 1009.46 1009.66 1009.80 1009.89 1009.97 1010.06 1010.20 1010.39 1010.64 1010.93 1011.25 1011.57 1011.88 1012.16 1012.38 1012.56 1012.69 1012.79
1011.51 1011.03 1010.53 1010.01 1009.49 1008.97 1008.44 1007.92 1007.39 1006.87 1006.36 1005.87 1005.43 1005.06 1004.79 1004.65 1004.65 1004.81 1005.11 1005.54 1006.05 1006.61 1007.17 1007.70 1008.17 1008.55 1008.85 1009.07 1009.24 1009.39 1009.55 1009.74 1009.97 1010.26 1010.59 1010.96 1011.33 1011.70 1012.03 1012.31 1012.54 1012.73 1012.88
1011.62 1011.19 1010.75 1010.28 1009.81 1009.32 1008.80 1008.25 1007.67 1007.06 1006.43 1005.79 1005.19 1004.64 1004.19 1003.88 1003.72 1003.74 1003.93 1004.27 1004.74 1005.29 1005.89 1006.47 1007.02 1007.50 1007.90 1008.23 1008.51 1008.75 1008.98 1009.24 1009.52 1009.86 1010.23 1010.64 1011.06 1011.48 1011.86 1012.21 1012.52 1012.77 1012.99
1011.74 1011.35 1010.95 1010.53 1010.08 1009.60 1009.08 1008.51 1007.88 1007.19 1006.46 1005.70 1004.95 1004.24 1003.63 1003.14 1002.83 1002.69 1002.75 1003.00 1003.39 1003.92 1004.51 1005.14 1005.75 1006.32 1006.83 1007.28 1007.67 1008.01 1008.34 1008.67 1009.02 1009.41 1009.82 1010.27 1010.73 1011.19 1011.64 1012.05 1012.43 1012.77 1013.08
1011.84 1011.46 1011.07 1010.66 1010.22 1009.74 1009.21 1008.61 1007.94 1007.19 1006.39 1005.53 1004.68 1003.85 1003.09 1002.46 1001.99 1001.72 1001.64 1001.76 1002.07 1002.53 1003.11 1003.75 1004.41 1005.06 1005.68 1006.24 1006.74 1007.21 1007.64 1008.05 1008.47 1008.90 1009.36 1009.83 1010.33 1010.83 1011.33 1011.81 1012.27 1012.69 1013.09
Thickness
5759 5759 5759 5757 5754 5751 5748 5744 5740 5736 5733 5727 5722 5718 5714 5712 5710 5707 5704 5702 5699 5696 5693 5690 5687 5685 5683 5681 5681 5680 5680 5681 5684 5685 5686 5692 5698 5702 5706 5710 5713 5716 5720
5753 5754 5755 5754 5751 5748 5746 5742 5739 5735 5732 5728 5723 5719 5714 5711 5708 5705 5703 5700 5698 5695 5692 5688 5685 5683 5680 5678 5678 5677 5676 5676 5679 5678 5678 5679 5685 5694 5701 5704 5707 5711 5715
5754 5752 5751 5750 5749 5746 5744 5742 5738 5735 5731 5728 5723 5718 5713 5708 5705 5702 5700 5698 5696 5694 5691 5687 5684 5681 5679 5676 5675 5674 5672 5671 5674 5676 5675 5672 5673 5681 5691 5697 5702 5706 5709
5756 5753 5751 5748 5748 5747 5745 5741 5737 5734 5730 5727 5722 5715 5709 5704 5702 5700 5698 5697 5695 5692 5690 5687 5684 5681 5678 5675 5674 5673 5671 5670 5669 5671 5673 5674 5675 5675 5679 5688 5695 5700 5704
5756 5753 5752 5750 5749 5747 5744 5740 5736 5733 5729 5726 5721 5715 5709 5705 5702 5700 5697 5695 5693 5691 5689 5686 5683 5680 5677 5675 5673 5672 5670 5669 5668 5668 5669 5671 5672 5674 5675 5677 5685 5692 5698
5755 5753 5752 5749 5747 5745 5742 5739 5735 5731 5728 5724 5720 5715 5710 5706 5702 5698 5695 5693 5691 5689 5688 5685 5682 5680 5677 5675 5673 5671 5670 5668 5668 5667 5668 5668 5668 5670 5672 5673 5677 5682 5690
5753 5750 5747 5745 5744 5742 5740 5737 5734 5729 5727 5723 5719 5715 5711 5707 5702 5699 5695 5692 5689 5688 5686 5685 5682 5679 5677 5675 5673 5671 5669 5668 5667 5667 5667 5667 5669 5670 5671 5672 5674 5677 5683
5752 5751 5749 5747 5745 5743 5740 5736 5732 5729 5726 5722 5719 5716 5712 5707 5703 5700 5697 5693 5690 5688 5687 5684 5682 5680 5678 5676 5673 5671 5669 5668 5667 5667 5667 5666 5668 5670 5671 5671 5671 5672 5676
5752 5751 5750 5748 5745 5743 5740 5737 5733 5729 5726 5723 5719 5715 5712 5708 5704 5701 5698 5695 5693 5690 5688 5685 5682 5680 5678 5675 5673 5670 5668 5667 5667 5666 5666 5666 5667 5669 5670 5672 5672 5670 5670
5752 5751 5750 5748 5747 5745 5742 5738 5735 5731 5727 5723 5719 5716 5712 5708 5705 5702 5698 5696 5694 5691 5688 5685 5682 5680 5677 5675 5672 5670 5668 5667 5666 5665 5665 5665 5666 5667 5669 5670 5671 5672 5671
5752 5751 5750 5749 5747 5744 5741 5737 5734 5730 5726 5723 5719 5716 5712 5708 5705 5701 5699 5696 5694 5691 5688 5686 5682 5679 5677 5674 5672 5670 5668 5666 5665 5665 5665 5664 5665 5666 5666 5668 5669 5669 5670
5753 5751 5750 5747 5744 5742 5740 5737 5734 5730 5727 5724 5720 5716 5712 5708 5704 5701 5699 5697 5694 5692 5689 5686 5683 5679 5677 5674 5672 5669 5668 5666 5664 5664 5664 5663 5664 5664 5665 5665 5666 5667 5669
5750 5748 5745 5744 5743 5741 5739 5736 5734 5731 5728 5724 5719 5715 5711 5707 5704 5702 5699 5697 5694 5692 5689 5686 5682 5680 5677 5675 5672 5670 5669 5667 5666 5664 5664 5663 5663 5662 5663 5664 5664 5666 5668
5747 5744 5742 5741 5741 5741 5739 5736 5733 5731 5728 5723 5719 5715 5711 5708 5705 5702 5700 5697 5694 5691 5688 5686 5683 5680 5678 5675 5673 5671 5669 5667 5666 5666 5665 5664 5663 5663 5663 5663 5663 5664 5665
5743 5743 5741 5740 5739 5738 5737 5736 5733 5730 5727 5722 5718 5715 5712 5709 5705 5702 5699 5696 5694 5691 5688 5685 5683 5680 5678 5676 5674 5672 5669 5667 5666 5665 5665 5664 5664 5665 5664 5664 5663 5662 5662
5743 5743 5742 5740 5739 5738 5736 5734 5732 5730 5726 5722 5719 5716 5711 5708 5704 5701 5698 5695 5692 5690 5687 5684 5682 5680 5678 5677 5675 5673 5670 5667 5665 5664 5664 5664 5664 5664 5664 5664 5664 5663 5661
5741 5741 5741 5740 5740 5739 5737 5734 5733 5730 5725 5721 5718 5715 5711 5707 5704 5701 5697 5694 5691 5688 5685 5683 5681 5679 5678 5677 5676 5673 5670 5667 5665 5663 5662 5662 5663 5662 5661 5661 5662 5661 5662
5738 5739 5740 5740 5740 5739 5737 5735 5731 5727 5723 5720 5717 5714 5710 5706 5703 5699 5695 5692 5690 5686 5684 5681 5679 5678 5677 5677 5675 5673 5669 5666 5664 5663 5662 5660 5659 5660 5659 5657 5657 5656 5657
5737 5738 5739 5738 5737 5736 5735 5731 5727 5724 5720 5718 5715 5713 5709 5705 5700 5697 5694 5691 5688 5685 5682 5681 5678 5676 5675 5675 5674 5672 5667 5664 5662 5662 5661 5659 5658 5659 5658 5655 5653 5652 5653
5733 5734 5734 5733 5731 5731 5730 5726 5722 5719 5718 5717 5715 5713 5709 5704 5700 5697 5693 5690 5687 5684 5681 5679 5677 5675 5673 5673 5672 5670 5665 5661 5660 5658 5658 5658 5657 5657 5656 5652 5650 5648 5648
5727 5727 5726 5724 5724 5725 5723 5719 5717 5716 5718 5716 5713 5710 5707 5703 5700 5696 5692 5688 5685 5681 5678 5676 5674 5672 5671 5670 5669 5667 5663 5660 5657 5655 5654 5654 5655 5654 5653 5651 5648 5647 5646
5717 5717 5716 5715 5717 5716 5714 5712 5712 5714 5713 5710 5707 5705 5703 5701 5698 5692 5688 5685 5681 5677 5674 5671 5669 5668 5667 5666 5665 5664 5662 5659 5655 5652 5651 5650 5650 5649 5648 5647 5646 5645 5643
5706 5707 5706 5706 5707 5707 5706 5704 5707 5707 5705 5703 5701 5700 5698 5695 5693 5689 5684 5680 5677 5673 5670 5667 5665 5663 5662 5661 5661 5660 5658 5656 5652 5649 5648 5647 5645 5644 5642 5642 5641 5639 5636
5694 5695 5695 5695 5696 5698 5699 5699 5700 5699 5698 5696 5694 5693 5690 5687 5685 5683 5680 5676 5673 5669 5667 5664 5661 5659 5657 5656 5655 5654 5652 5650 5647 5644 5642 5641 5638 5636 5635 5634 5632 5631 5629
5682 5683 5684 5684 5687 5688 5689 5690 5691 5689 5688 5687 5686 5685 5684 5681 5678 5676 5674 5672 5671 5669 5666 5663 5660 5656 5653 5654 5653 5649 5647 5644 5641 5638 5634 5632 5629 5627 5625 5624 5623 5622 5621
5669 5670 5672 5674 5676 5678 5680 5681 5681 5680 5679 5677 5677 5676 5674 5672 5670 5667 5663 5663 5663 5663 5662 5660 5657 5655 5653 5651 5648 5645 5643 5640 5637 5632 5628 5625 5622 5620 5618 5616 5614 5612 5611